Home > Weather > Escuintla > Past weeks

Flag for Guatemala Weather for the Past 2 Weeks in Escuintla, Guatemala

Now
54 °F

Overcast.


Feels Like: 49 °F
Forecast: 62 / 94 °F
Wind: 16 mph from North

Location: Guatemala Aeropuertola Aurora

Current Time: Feb 12, 2016 at 7:23:15 AM

Latest Report: Feb 12, 2016 at 7:00 AM


Visibility: N/A

Pressure: 30.39 "Hg

Humidity: 82%

Dew point: 48 °F

Location of EscuintlaLocation

Historic Weather in Escuintla — Graph

°F

Escuintla Temperature Yesterday

Maximum temperature yesterday: 66 °F (at 2:00 PM)
Minimum temperature yesterday: 48 °F (at 7:00 AM)
Average temperature yesterday: 56 °F

High & Low Weather Summary for the Past Weeks

 TemperatureHumidityPressure
High81 °F (Feb 1, 1:00 PM)100% (Jan 31, 2:00 AM)30.48 "Hg (Jan 31, 2:00 AM)
Low48 °F (Feb 8, 5:00 AM)39% (Feb 1, 2:00 PM)30.15 "Hg (Feb 1, 3:00 PM)
Average62 °F74%30.31 "Hg
* Reported Jan 28 6:00 AM — Feb 12 6:00 AM, Escuintla, Weather by CustomWeather, © 2016

Note: Actual official high and low records may vary slightly from our data, if they occured in-between our weather recording intervals... More about our weather records

Advertising

Escuintla Weather History for the Previous 24 Hours

 ConditionsComfort  
Time TempWeatherWind HumidityBarometerVisibility
6:00 AM
Fri, Feb 12
54 °FOvercast.16 mph88%30.36 "HgN/A
5:00 AM54 °FCool.16 mph88%30.36 "HgN/A
4:00 AM54 °FOvercast.12 mph88%30.36 "HgN/A
3:00 AM54 °FOvercast.16 mph82%30.36 "HgN/A
2:00 AM54 °FOvercast.14 mph82%30.36 "HgN/A
1:00 AM54 °FPassing clouds.16 mph82%30.39 "HgN/A
12:00 AM55 °FPassing clouds.18 mph77%30.39 "HgN/A
11:00 PM
Thu, Feb 11
55 °FPassing clouds.18 mph77%30.39 "HgN/A
10:00 PM55 °FPassing clouds.21 mph77%30.39 "HgN/A
9:00 PM55 °FPassing clouds.21 mph77%30.39 "HgN/A
8:00 PM57 °FPassing clouds.18 mph72%30.39 "HgN/A
7:00 PM57 °FPassing clouds.18 mph72%30.36 "HgN/A
6:00 PM61 °FScattered clouds.21 mph63%30.33 "HgN/A
5:00 PM63 °FScattered clouds.21 mph59%30.33 "HgN/A
4:00 PM66 °FPassing clouds.21 mph52%30.30 "HgN/A
3:00 PM66 °FScattered clouds.21 mph56%30.30 "HgN/A
2:00 PM66 °FScattered clouds.23 mph52%30.33 "HgN/A
1:00 PM64 °FScattered clouds.21 mph52%30.33 "HgN/A
12:00 PM64 °FPassing clouds.23 mph52%30.39 "HgN/A
11:00 AM59 °FScattered clouds.21 mph59%30.42 "HgN/A
10:00 AM59 °FPartly sunny.21 mph55%30.42 "HgN/A
9:00 AM55 °FScattered clouds.21 mph63%30.42 "HgN/A
8:00 AM52 °FSunny.16 mph72%30.42 "Hg10 mi
7:00 AM48 °FSunny.16 mph82%30.39 "Hg10 mi
Weather by CustomWeather, © 2016

See weather overviewHow to use our weather pages